This is the latest recevied weather packets stored in our database for station/object WX9WTF. If no packets are shown the sender has not sent any weather packets the latest 10 day(s).
| Time | Temp. | Humidity | Pressure | Rain* | Wind** | Luminosity | Snow |
|---|---|---|---|---|---|---|---|
| 1778110959 | 15° C | 36% | 1017.8 hPa | 0 mm | - | 64 W/m² | - |
| 1778110656 | 15° C | 38% | 1017.7 hPa | 0 mm | - | 50 W/m² | - |
| 1778110353 | 15° C | 35% | 1017.8 hPa | 0 mm | - | 51 W/m² | - |
| 1778110049 | 15° C | 35% | 1017.6 hPa | 0 mm | - | 52 W/m² | - |
| 1778109744 | 15.56° C | 40% | 1017.6 hPa | 0 mm | - | 53 W/m² | - |
| 1778109442 | 15.56° C | 38% | 1017.6 hPa | 0 mm | - | 59 W/m² | - |
| 1778109140 | 15.56° C | 36% | 1017.7 hPa | 0 mm | - | 82 W/m² | - |
| 1778108837 | 16.11° C | 36% | 1017.5 hPa | 0 mm | - | 213 W/m² | - |
| 1778108534 | 16.11° C | 34% | 1017.6 hPa | 0 mm | - | 264 W/m² | - |
| 1778108230 | 16.11° C | 36% | 1017.7 hPa | 0 mm | - | 282 W/m² | - |
| 1778107927 | 16.11° C | 35% | 1017.6 hPa | 0 mm | - | 303 W/m² | - |
| 1778107623 | 16.11° C | 37% | 1017.7 hPa | 0 mm | - | 325 W/m² | - |
| 1778107321 | 16.11° C | 35% | 1017.7 hPa | 0 mm | - | 347 W/m² | - |
| 1778107017 | 16.67° C | 36% | 1017.6 hPa | 0 mm | - | 366 W/m² | - |
| 1778106713 | 16.11° C | 38% | 1017.8 hPa | 0 mm | - | 381 W/m² | - |
| 1778106410 | 16.11° C | 35% | 1017.4 hPa | 0 mm | - | 392 W/m² | - |
| 1778106105 | 16.11° C | 36% | 1017.7 hPa | 0 mm | - | 425 W/m² | - |
| 1778105804 | 15.56° C | 36% | 1017.6 hPa | 0 mm | - | 427 W/m² | - |
| 1778105502 | 16.11° C | 37% | 1017.9 hPa | 0 mm | - | 448 W/m² | - |
| 1778105198 | 16.11° C | 35% | 1017.8 hPa | 0 mm | - | 459 W/m² | - |
| 1778104893 | 16.11° C | 34% | 1017.7 hPa | 0 mm | - | 475 W/m² | - |
| 1778104590 | 16.11° C | 36% | 1017.8 hPa | 0 mm | - | 516 W/m² | - |
| 1778104285 | 16.11° C | 35% | 1018.1 hPa | 0 mm | - | 518 W/m² | - |
| 1778103982 | 15.56° C | 34% | 1017.9 hPa | 0 mm | - | 523 W/m² | - |
| 1778103679 | 15.56° C | 39% | 1018.2 hPa | 0 mm | - | 533 W/m² | - |
* Rain latest hour (hover to see other rain measurements)
** Current wind speed in m/s (hover to see current wind gust speed)